Location: Unspecified
(0.0000°N, 0.0000°E)
Time: 06:27:49
(UTC+00:00)

Courier 1B - All Passes

Search period start: 20 October 2021 00:00
Search period end: 30 October 2021 00:00
Orbit: 962 x 1209 km, 28.3° (Epoch: 19 October)

Date Brightness Start Highest point End Pass type
(mag) Time Alt. Az. Time Alt. Az. Time Alt. Az.
20 Oct - 04:08:03 10° SSW 04:13:43 22° SSE 04:19:27 10° ESE visible
20 Oct - 06:00:43 10° SW 06:08:31 65° SSE 06:16:14 10° ENE daylight
20 Oct - 07:55:44 10° W 08:02:59 41° NNW 08:10:03 10° NE daylight
20 Oct - 09:54:43 10° NW 09:58:00 13° NNW 10:01:15 10° N daylight
20 Oct - 15:43:32 10° N 15:46:57 14° NNE 15:50:20 10° NE daylight
20 Oct - 17:35:11 10° NW 17:41:26 51° NNE 17:47:43 10° ESE daylight
20 Oct - 19:29:23 10° W 19:35:28 43° SSW 19:41:43 10° SE visible
20 Oct - 21:27:20 10° SW 21:30:12 13° SSW 21:33:07 10° S visible
21 Oct - 03:15:01 10° SSW 03:19:29 16° SSE 03:23:59 10° ESE visible
21 Oct - 05:07:00 10° SW 05:14:28 48° SSE 05:21:58 10° ENE visible
21 Oct - 07:01:17 10° WSW 07:08:57 56° NNW 07:16:29 10° NE daylight
21 Oct - 08:58:48 10° WNW 09:03:46 18° NNW 09:08:38 10° NNE daylight
21 Oct - 14:51:30 10° N 14:52:51 11° NNE 14:54:10 10° NNE daylight
21 Oct - 16:41:44 10° NW 16:47:40 36° NNE 16:53:31 10° E daylight
21 Oct - 18:35:19 10° WNW 18:41:41 60° SSW 18:48:09 10° SE visible
21 Oct - 20:31:59 10° WSW 20:36:07 17° SSW 20:40:20 10° SSE visible
22 Oct - 02:22:36 10° S 02:25:09 12° SSE 02:27:45 10° SE visible
22 Oct - 04:13:27 10° SW 04:20:24 36° SSE 04:27:27 10° E visible
22 Oct - 06:07:04 10° WSW 06:14:55 75° NNW 06:22:44 10° NE daylight
22 Oct - 08:03:30 10° WNW 08:09:36 24° NNW 08:15:34 10° NNE daylight
22 Oct - 15:48:23 10° NNW 15:53:48 26° NNE 15:59:05 10° E daylight
22 Oct - 17:41:26 10° WNW 17:47:57 85° SSW 17:54:28 10° ESE daylight
22 Oct - 19:37:07 10° WSW 19:42:08 23° SSW 19:47:15 10° SSE visible
23 Oct - 03:20:06 10° SSW 03:26:17 27° SSE 03:32:37 10° E visible
23 Oct - 05:13:05 10° WSW 05:20:53 82° SSE 05:28:46 10° ENE visible
23 Oct - 07:08:35 10° W 07:15:27 33° NNW 07:22:14 10° NNE daylight
23 Oct - 09:09:02 10° NNW 09:10:48 11° NNW 09:12:34 10° N daylight
23 Oct - 14:55:12 10° NNW 14:59:51 19° NNE 15:04:23 10° ENE daylight
23 Oct - 16:47:40 10° NW 16:54:13 68° NNE 17:00:39 10° ESE daylight
23 Oct - 18:42:35 10° W 18:48:16 32° SSW 18:54:01 10° SSE visible
24 Oct - 02:27:00 10° SSW 02:32:08 20° SSE 02:37:26 10° ESE visible
24 Oct - 04:19:18 10° SW 04:26:52 61° SSE 04:34:37 10° ENE visible
24 Oct - 06:14:00 10° W 06:21:21 44° NNW 06:28:44 10° NE daylight
24 Oct - 08:12:23 10° NW 08:16:27 15° NNW 08:20:29 10° N daylight
24 Oct - 14:02:12 10° N 14:05:47 14° NNE 14:09:16 10° NE daylight
24 Oct - 15:54:01 10° NW 16:00:27 48° NNE 16:06:40 10° ESE daylight
24 Oct - 17:48:16 10° W 17:54:28 45° SSW 18:00:38 10° SE daylight
24 Oct - 19:46:13 10° SW 19:49:02 13° SSW 19:51:52 10° S visible
25 Oct - 01:34:16 10° S 01:37:57 14° SSE 01:41:42 10° SE visible
25 Oct - 03:25:43 10° SW 03:32:51 45° SSE 03:40:14 10° E visible
25 Oct - 05:19:42 10° WSW 05:27:18 59° NNW 05:35:01 10° NE visible
25 Oct - 07:16:47 10° WNW 07:22:10 20° NNW 07:27:32 10° NNE daylight
25 Oct - 13:09:49 10° N 13:11:36 11° NNE 13:13:20 10° NE daylight
25 Oct - 15:00:28 10° NW 15:06:37 35° NNE 15:12:29 10° E daylight
25 Oct - 16:54:09 10° WNW 17:00:42 65° SSW 17:07:08 10° SE daylight
25 Oct - 18:50:48 10° WSW 18:55:01 18° SSW 18:59:14 10° SSE visible
26 Oct - 00:43:24 10° SSE 00:43:41 10° SSE 00:43:57 10° SSE night (unlit)
26 Oct - 02:32:20 10° SSW 02:38:49 33° SSE 02:45:34 10° E visible
26 Oct - 04:25:38 10° WSW 04:33:16 80° NNW 04:41:09 10° NE visible
26 Oct - 06:21:41 10° W 06:27:57 26° NNW 06:34:16 10° NNE daylight
26 Oct - 14:07:02 10° NNW 14:12:41 26° NNE 14:18:05 10° E daylight
26 Oct - 16:00:10 10° WNW 16:06:58 89° NNE 16:13:29 10° ESE daylight
26 Oct - 17:55:53 10° W 18:01:05 25° SSW 18:06:15 10° SSE visible
27 Oct - 01:39:09 10° SSW 01:44:46 24° SSE 01:50:37 10° ESE visible
27 Oct - 03:31:48 10° SW 03:39:16 77° SSE 03:47:05 10° ENE visible
27 Oct - 05:26:57 10° W 05:33:49 35° NNW 05:40:48 10° NE daylight
27 Oct - 07:26:26 10° NW 07:29:12 12° NNW 07:31:57 10° N daylight
27 Oct - 13:13:43 10° NNW 13:18:38 19° NNE 13:23:22 10° ENE daylight
27 Oct - 15:06:19 10° NW 15:13:11 64° NNE 15:19:42 10° ESE daylight
27 Oct - 17:01:17 10° W 17:07:15 34° SSW 17:13:04 10° SE daylight
28 Oct - 00:46:15 10° SSW 00:50:41 17° SSE 00:55:16 10° ESE night (unlit)
28 Oct - 02:38:09 10° SW 02:45:18 57° SSE 02:52:49 10° ENE visible
28 Oct - 04:32:32 10° W 04:39:43 46° NNW 04:47:10 10° NE visible
28 Oct - 06:30:24 10° WNW 06:34:49 16° NNW 06:39:16 10° NNE daylight
28 Oct - 12:20:35 10° NNW 12:24:29 15° NNE 12:28:16 10° NE daylight
28 Oct - 14:12:35 10° NW 14:19:20 46° NNE 14:25:43 10° E daylight
28 Oct - 16:06:54 10° WNW 16:13:27 49° SSW 16:19:44 10° SE daylight
28 Oct - 18:04:45 10° SW 18:07:54 14° SSW 18:11:03 10° S visible
28 Oct - 23:53:56 10° S 23:56:33 12° SSE 23:59:12 10° SE night (unlit)
29 Oct - 01:44:43 10° SW 01:51:21 41° SSE 01:58:21 10° E visible
29 Oct - 03:38:23 10° WSW 03:45:41 62° NNW 03:53:22 10° NE visible
29 Oct - 05:35:03 10° WNW 05:40:32 21° NNW 05:46:07 10° NNE daylight
29 Oct - 11:27:53 10° N 11:30:12 11° NNE 11:32:28 10° NE daylight
29 Oct - 13:18:57 10° NW 13:25:25 34° NNE 13:31:31 10° E daylight
29 Oct - 15:12:42 10° WNW 15:19:40 70° SSW 15:26:16 10° SE daylight
29 Oct - 17:09:20 10° WSW 17:13:55 19° SSW 17:18:27 10° SSE daylight
